Location: *
(43.0409°N, 0.1694°E)
Time: 22:16:41
(UTC+00:00)

Cosmos 2237 Rocket - Pass Details

Date: 03 October 2023
Orbit: 835 x 848 km, 71.0° (Epoch: 04 December)

Event Time Altitude Azimuth Distance (km) Brightness Sun altitude
Rises 04:17:27 0° 337° (NNW) 3,418 5.3 -19.2°
Reaches altitude 10° 04:19:56 10° 340° (NNW) 2,478 4.6 -18.7°
Maximum altitude 04:25:36 68° 63° (ENE) 907 2.5 -17.7°
Drops below altitude 10° 04:31:13 10° 147° (SSE) 2,454 4.9 -16.7°
Sets 04:33:40 0° 150° (SSE) 3,383 5.6 -16.3°
